STARLINK-5871 (55919 NORAD) Tracking and Keplerian Element Data

This shows tracking and keplerian element data for the satellite.

Feedback or suggestion? Click here.




ElementValue
Catalog55919
NameSTARLINK-5871
Epoch Orbit840
Epoch Day127.25001157
Epoch Year2023
RAAN41.2733
Inclination70.0018
Eccentricity0.0003167
Argument of Perigee275.2671
Mean Anonmoly22.8818
Mean Motion15.29686201
Decay Rate-0.00926377
L11 55919U 23037F 23127.25001157 -.00926377 00000+0 -35088-1 0 9990
L22 55919 70.0018 41.2733 0003167 275.2671 22.8818 15.29686201 8405



Live tracking and technical data element details for STARLINK-5871 (NORAD 55919). STARLINK-5871 can be tracked NOW for your location showing map with azimuth and elevation plus other details from your city location.







IsCatalogInMostPopularTable: catalog: 55919, numindb: 8
Update: records affected: 1



GetName: 55919 STARLINK-5871

Hit Count: updated at: Tue, 06 Jun 2023 02:29:23 GMT